Volver al catálogo

COSMOS 2251 DEB

ActivoLEO
NORAD 34576·DEBRIS·🇷🇺 Russia

Lanzado Jun 16, 1993 desde Plesetsk Cosmodrome

Loading…

Próximos Pases (próximas 24 horas)

TLE

ActualizadoSource: Space-Track

Época: Sep 14, 2026, 09:16 UTC

1 34576U 93036VN  26257.38663898  .00001534  00000-0  34782-3 0  9999
2 34576  74.0346 335.2245 0007470  26.6557  93.6841 14.56947163924792

Sigue COSMOS 2251 DEB en tiempo real con AllMySat

Download on the App Store